This demonstration page uses our WeatherBlox Daily Observations layout. Learn more.

Left ArrowRight Arrow

40.92945, -100.16068

Hourly Observations for February 3, 2016

Temp ( °F °C ) Dew Point ( °F °C ) Humidity (%) Winds ( mph kmh ) Pressure ( in mb ) Visibility ( mi km ) Precip ( " mm )
12:15 am 00:15 Cloudy 25 -3.7 19 -7.5 75 75 NNW 17 28 30.09 1019 N/A N/A
12:35 am 00:35 Cloudy 25 -4 18 -7.7 76 76 NNW 17 28 30.09 1019 N/A N/A
12:55 am 00:55 Cloudy 24 -4.2 18 -8 75 75 NNW 18 30 30.12 1020 N/A N/A
1:15 am 01:15 Cloudy 25 -4 18 -7.8 75 75 N 17 28 30.12 1020 10 16.0934 N/A
1:35 am 01:35 Cloudy 25 -4 19 -7.5 77 77 N 15 24 30.12 1020 10 16.0934 N/A
1:55 am 01:55 Cloudy 25 -4 19 -7.5 77 77 NNW 8 13 30.12 1020 10 16.0934 N/A
2:15 am 02:15 Cloudy 26 -3.6 18 -7.7 74 74 NNW 14 22 30.12 1020 10 16.0934 N/A
2:35 am 02:35 Cloudy 26 -3.5 18 -7.9 72 72 NNW 20 31 30.15 1021 10 16.0934 N/A
2:55 am 02:55 Cloudy 25 -3.7 18 -8 72 72 NNW 12 19 30.15 1021 10 16.0934 N/A
3:15 am 03:15 Cloudy 26 -3.5 17 -8.3 70 70 NNW 18 30 30.15 1021 10 16.0934 N/A
3:35 am 03:35 Cloudy 25 -4 17 -8.6 71 71 NNW 16 26 30.15 1021 10 16.0934 N/A
3:55 am 03:55 Partly Cloudy 23 -4.8 16 -9.1 72 72 NNW 12 19 30.15 1021 10 16.0934 N/A
4:15 am 04:15 Clear 21 -5.9 14 -9.9 74 74 NNW 9 15 30.18 1022 10 16.0934 N/A
4:35 am 04:35 Partly Cloudy 19 -7.5 12 -10.9 77 77 NW 9 15 30.18 1022 10 16.0934 N/A
4:55 am 04:55 Clear 16 -9 10 -12 79 79 NW 9 15 30.21 1023 10 16.0934 N/A
5:15 am 05:15 Mostly Cloudy 17 -8.5 11 -11.4 80 80 NW 8 13 30.21 1023 10 16.0934 N/A
5:35 am 05:35 Cloudy 18 -7.6 13 -10.3 81 81 NW 8 13 30.21 1023 10 16.0934 N/A
5:55 am 05:55 Cloudy 18 -7.6 13 -10.5 80 80 NW 7 11 30.24 1024 10 16.0934 N/A
6:15 am 06:15 Cloudy 19 -7 15 -9.5 83 83 WNW 7 11 30.21 1023 10 16.0934 N/A
6:35 am 06:35 Cloudy 22 -5.7 16 -9 78 78 WNW 13 20 30.21 1023 10 16.0934 N/A
6:55 am 06:55 Partly Cloudy 20 -6.6 14 -9.9 78 78 WNW 13 20 30.21 1023 10 16.0934 N/A
7:15 am 07:15 Clear 18 -7.9 13 -10.7 81 81 WNW 14 22 30.24 1024 10 16.0934 N/A
7:35 am 07:35 Clear 17 -8.5 12 -11.3 80 80 WNW 10 17 30.24 1024 10 16.0934 N/A
7:55 am 07:55 Sunny 16 -8.7 12 -11.3 82 82 WNW 13 20 30.24 1024 10 16.0934 N/A
8:15 am 08:15 Sunny 16 -8.7 11 -11.5 80 80 WNW 14 22 30.24 1024 10 16.0934 N/A
8:35 am 08:35 Sunny 16 -9 11 -11.9 80 80 WNW 13 20 30.27 1025 10 16.0934 N/A
8:55 am 08:55 Sunny 15 -9.2 10 -12.1 80 80 WNW 12 19 30.27 1025 10 16.0934 N/A
9:15 am 09:15 Sunny 15 -9.2 10 -12 80 80 WNW 12 19 30.3 1026 10 16.0934 N/A
9:35 am 09:35 Sunny 17 -8.5 11 -11.5 79 79 WNW 10 17 30.3 1026 10 16.0934 N/A
9:55 am 09:55 Sunny 17 -8.3 11 -11.5 78 78 WNW 10 17 30.3 1026 10 16.0934 N/A
10:15 am 10:15 Sunny 18 -7.6 12 -10.9 77 77 WNW 9 15 30.3 1026 10 16.0934 N/A
10:35 am 10:35 Sunny 19 -7.1 13 -10.6 76 76 WNW 12 19 30.27 1025 10 16.0934 N/A
10:55 am 10:55 Sunny 20 -6.6 14 -10.2 76 76 NW 14 22 30.27 1025 10 16.0934 N/A
11:15 am 11:15 Sunny 22 -5.6 15 -9.4 75 75 NW 13 20 30.3 1026 10 16.0934 N/A
11:35 am 11:35 Sunny 23 -5.2 16 -9 75 75 WNW 13 20 30.3 1026 10 16.0934 N/A
11:55 am 11:55 Sunny 24 -4.5 17 -8.5 74 74 WNW 12 19 30.27 1025 10 16.0934 N/A
12:15 pm 12:15 Sunny 24 -4.4 17 -8.6 73 73 NW 10 17 30.27 1025 10 16.0934 N/A
12:35 pm 12:35 Sunny 25 -3.8 17 -8.6 70 70 WNW 9 15 30.24 1024 10 16.0934 N/A
12:55 pm 12:55 Sunny 26 -3.3 16 -8.8 66 66 NW 9 15 30.24 1024 10 16.0934 N/A
1:15 pm 13:15 Sunny 27 -2.8 16 -9.1 62 62 NW 9 15 30.24 1024 10 16.0934 N/A
1:35 pm 13:35 Sunny 27 -2.6 16 -8.9 62 62 NW 10 17 30.24 1024 10 16.0934 N/A
1:55 pm 13:55 Sunny 28 -2.4 18 -7.8 67 67 WNW 9 15 30.24 1024 10 16.0934 N/A
2:15 pm 14:15 Sunny 29 -1.8 19 -7.5 65 65 WNW 10 17 30.24 1024 10 16.0934 N/A
2:35 pm 14:35 Sunny 29 -1.8 17 -8.4 61 61 WNW 12 19 30.24 1024 10 16.0934 N/A
2:55 pm 14:55 Sunny 28 -2 19 -7.1 68 68 WNW 14 22 30.24 1024 10 16.0934 N/A
3:15 pm 15:15 Sunny 29 -1.7 19 -7 67 67 WNW 14 22 30.27 1025 10 16.0934 N/A
3:35 pm 15:35 Sunny 29 -1.7 20 -6.9 68 68 WNW 9 15 30.27 1025 10 16.0934 N/A
3:55 pm 15:55 Sunny 29 -1.9 20 -6.5 71 71 WNW 7 11 30.27 1025 10 16.0934 N/A
4:15 pm 16:15 Sunny 28 -2 20 -6.6 71 71 WNW 9 15 30.27 1025 10 16.0934 N/A
4:35 pm 16:35 Sunny 29 -1.9 20 -6.8 70 70 W 8 13 30.27 1025 10 16.0934 N/A
4:55 pm 16:55 Sunny 28 -2.3 20 -6.7 72 72 W 5 7 30.27 1025 10 16.0934 N/A
5:15 pm 17:15 Sunny 26 -3.1 19 -7 75 75 W 5 7 30.27 1025 10 16.0934 N/A
5:35 pm 17:35 Sunny 25 -3.7 19 -7.4 76 76 W 5 7 30.27 1025 10 16.0934 N/A
5:55 pm 17:55 Sunny 24 -4.7 18 -8 78 78 W 7 11 30.3 1026 10 16.0934 N/A
6:15 pm 18:15 Clear 22 -5.3 17 -8.3 80 80 W 6 9 30.33 1027 10 16.0934 N/A
6:35 pm 18:35 Clear 21 -6 16 -8.7 81 81 WSW 8 13 30.33 1027 10 16.0934 N/A
6:55 pm 18:55 Clear 19 -7.3 15 -9.6 84 84 WSW 5 7 30.36 1028 10 16.0934 N/A
7:15 pm 19:15 Clear 17 -8.1 13 -10.3 84 84 W 5 7 30.36 1028 10 16.0934 N/A
7:35 pm 19:35 Clear 20 -6.7 16 -8.9 85 85 W 9 15 30.36 1028 10 16.0934 N/A
7:55 pm 19:55 Clear 21 -6 16 -8.8 81 81 W 8 13 30.33 1027 10 16.0934 N/A
8:15 pm 20:15 Clear 20 -6.9 15 -9.5 82 82 WSW 6 9 30.36 1028 10 16.0934 N/A
8:35 pm 20:35 Clear 19 -7 15 -9.7 81 81 W 5 7 30.36 1028 10 16.0934 N/A
8:55 pm 20:55 Clear 17 -8.6 12 -11 83 83 W 7 11 30.36 1028 10 16.0934 N/A
9:15 pm 21:15 Clear 16 -8.8 11 -11.5 81 81 W 7 11 30.36 1028 10 16.0934 N/A
9:35 pm 21:35 Clear 15 -9.2 11 -11.6 83 83 W 7 11 30.36 1028 10 16.0934 N/A
9:55 pm 21:55 Clear 14 -10.2 10 -12.5 83 83 W 9 15 30.39 1029 10 16.0934 N/A
10:15 pm 22:15 Clear 14 -9.9 10 -12 85 85 W 7 11 30.39 1029 10 16.0934 N/A
10:35 pm 22:35 Clear 14 -9.8 10 -12.2 83 83 W 6 9 30.39 1029 10 16.0934 N/A
10:55 pm 22:55 Clear 8 -13.3 4 -15.3 85 85 W 6 9 30.42 1030 10 16.0934 N/A
11:15 pm 23:15 Clear 7 -14 4 -15.6 88 88 NW 5 7 30.42 1030 10 16.0934 N/A
11:35 pm 23:35 Clear 8 -13.3 5 -14.8 89 89 NW 7 11 30.45 1031 10 16.0934 N/A
11:55 pm 23:55 Clear 6 -14.2 3 -16 86 86 NW 7 11 30.45 1031 10 16.0934 N/A

Powered by AerisWeather